Apalachicola, FL

10:42 AM EDT on October 22, 2019 (GMT -0400)
Apalachicola Municipal

Weather History for KAAF - September, 2019

Change the Weather History Date:

Monday, September 23, 2019

  Actual Average Record
Temperature  
Mean Temperature 77 °F 78 °F  
Max Temperature 87 °F 87 °F 95 °F (1998)
Min Temperature 66 °F 69 °F 55 °F (1982)
Degree Days  
Heating Degree Days 0    
Month to date heating degree days 0  
Since 1 July heating degree days 0  
Cooling Degree Days 12    
Month to date cooling degree days 403  
Year to date cooling degree days 2514  
Growing Degree Days 26 (Base 50)    
Moisture  
Dew Point 65 °F    
Average Humidity 69    
Maximum Humidity 91    
Minimum Humidity 38    
Precipitation  
Precipitation 0.00 in 0.21 in 1.95 in (1994)
Month to date precipitation 0.02 5.34  
Year to date precipitation 35.59 45.28  
Sea Level Pressure  
Sea Level Pressure 30.05 in    
Wind  
Wind Speed 5 mph (ENE)    
Max Wind Speed 14 mph    
Max Gust Speed 18 mph    
Visibility 10 miles    
Events      
T = Trace of Precipitation, MM = Missing Value Source: NWS Daily Summary

Daily Weather History Graph

Daily Weather History Graph

Search for Another Location

Airport or City:

Astronomy

Sep. 23, 2019 Rise Set
Actual Time 7:28 AM EDT 7:35 PM EDT
Civil Twilight 7:05 AM EDT 7:59 PM EDT
Nautical Twilight 6:37 AM EDT 8:27 PM EDT
Astronomical Twilight 6:09 AM EDT 8:55 PM EDT
Moon 1:39 AM EDT (9/23) 4:01 PM EDT (9/23)
Length of Visible Light 12h 54m
Length of Day
12h 06m
Waning Crescent, 33% of the Moon is Illuminated
Sep 23
Waning Crescent
Sep 28
New
Oct 5
First Quarter
Oct 13
Full
Oct 21
Last Quarter

Hourly Weather History & Observations

Time (EDT) Temp. Heat Index Dew Point Humidity Pressure Visibility Wind Dir Wind Speed Gust Speed Precip Events Conditions
12:53 AM 68.0 °F - 64.0 °F 87% 30.07 in 10.0 mi Calm Calm - N/A   Clear
1:53 AM 66.9 °F - 63.0 °F 87% 30.07 in 10.0 mi Calm Calm - N/A   Clear
2:53 AM 68.0 °F - 64.0 °F 87% 30.06 in 10.0 mi Calm Calm - N/A   Clear
3:53 AM 66.9 °F - 64.0 °F 90% 30.05 in 10.0 mi North 3.5 mph - N/A   Clear
4:53 AM 68.0 °F - 64.9 °F 90% 30.04 in 10.0 mi North 4.6 mph - N/A   Mostly Cloudy
5:53 AM 70.0 °F - 66.9 °F 90% 30.04 in 10.0 mi NNE 4.6 mph - N/A   Mostly Cloudy
6:53 AM 70.0 °F - 66.0 °F 87% 30.06 in 10.0 mi NE 5.8 mph - N/A   Scattered Clouds
7:53 AM 72.0 °F - 69.1 °F 91% 30.07 in 10.0 mi ENE 4.6 mph - N/A   Mostly Cloudy
8:53 AM 75.0 °F - 71.1 °F 87% 30.10 in 10.0 mi ENE 4.6 mph - N/A   Overcast
9:53 AM 78.1 °F - 71.1 °F 79% 30.11 in 10.0 mi ENE 4.6 mph - N/A   Overcast
10:53 AM 82.9 °F 85.4 °F 66.9 °F 58% 30.12 in 10.0 mi NE 8.1 mph - N/A   Overcast
11:53 AM 87.1 °F 87.8 °F 63.0 °F 44% 30.11 in 10.0 mi East 10.4 mph - N/A   Mostly Cloudy
12:53 PM 84.9 °F 86.6 °F 64.9 °F 51% 30.08 in 10.0 mi ESE 9.2 mph - N/A   Mostly Cloudy
1:53 PM 86.0 °F 87.3 °F 64.0 °F 48% 30.07 in 10.0 mi SE 11.5 mph - N/A   Scattered Clouds
2:53 PM 86.0 °F 87.3 °F 64.0 °F 48% 30.04 in 10.0 mi SSE 8.1 mph 17.3 mph N/A   Partly Cloudy
3:53 PM 87.1 °F 87.8 °F 63.0 °F 44% 30.03 in 10.0 mi SSE 9.2 mph - N/A   Clear
4:53 PM 87.1 °F 88.3 °F 64.0 °F 46% 30.01 in 10.0 mi SSE 8.1 mph - N/A   Clear
5:53 PM 84.9 °F 86.6 °F 64.9 °F 51% 29.99 in 10.0 mi SE 6.9 mph - N/A   Clear
6:53 PM 82.9 °F 84.4 °F 64.0 °F 53% 29.99 in 10.0 mi South 3.5 mph - N/A   Clear
7:53 PM 79.0 °F - 64.9 °F 62% 29.99 in 10.0 mi West 3.5 mph - N/A   Clear
8:53 PM 73.9 °F - 64.9 °F 73% 29.99 in 10.0 mi NW 3.5 mph - N/A   Clear
9:53 PM 72.0 °F - 63.0 °F 73% 30.00 in 10.0 mi Calm Calm - N/A   Clear
10:53 PM 71.1 °F - 63.0 °F 75% 30.00 in 10.0 mi NNW 3.5 mph - N/A   Clear
11:53 PM 71.1 °F - 63.0 °F 75% 29.99 in 10.0 mi NNW 3.5 mph - N/A   Clear